Theta_e
356 355 355 356 357 357 356 357 359 361 360 362 364 364 364 364 363 363 365 367 367 368 369 370 369 368 368 367 365 365 364 363 362 361 359 358 358 358 357 356 356 355 354 353 351 350 348 347 345 344 343 342 341 341 340 338 336 335 336 336 336 337 337
355 355 356 356 356 357 357 359 361 361 360 361 363 363 363 364 365 365 365 367 368 368 369 370 370 369 369 368 366 366 365 363 363 363 361 359 358 359 357 356 356 356 355 353 351 350 348 347 346 344 343 341 340 341 340 338 337 335 335 336 336 337 338
355 355 356 356 357 358 358 359 361 361 360 361 362 362 363 364 365 366 365 367 369 368 368 370 370 369 368 368 367 366 365 364 364 364 362 360 360 359 358 357 356 355 354 353 351 350 349 347 346 344 342 341 340 340 340 339 338 336 335 336 337 336 337
354 354 356 357 358 359 359 359 361 361 360 360 361 362 363 365 365 366 366 367 368 368 369 369 369 369 368 368 368 367 366 365 365 365 362 360 360 359 357 357 356 355 355 354 352 351 349 347 346 344 342 341 340 341 340 339 338 337 336 336 336 336 336
354 354 355 357 357 359 359 358 360 362 359 359 361 362 363 365 366 366 366 366 366 367 369 368 368 369 368 368 368 367 367 366 365 365 363 360 360 359 358 357 356 354 355 354 352 351 349 346 345 343 342 342 341 341 340 339 337 337 337 336 336 335 335
353 354 355 355 356 358 359 358 359 361 359 358 360 362 363 364 364 364 365 366 366 366 368 368 367 369 368 368 367 367 366 366 365 365 364 361 360 360 359 357 356 355 355 354 353 351 349 346 343 342 343 342 341 341 340 339 338 337 338 337 337 336 335
352 354 356 355 355 357 357 357 358 359 359 358 359 361 362 361 362 362 362 364 365 365 367 367 367 368 368 368 367 367 367 366 365 365 364 361 359 361 360 355 353 354 355 354 351 350 349 346 343 343 343 342 341 341 340 339 339 337 337 337 336 336 336
351 354 355 355 355 354 355 357 358 359 360 359 359 361 361 360 360 360 359 361 362 363 364 364 365 368 368 368 367 367 367 365 365 363 362 360 360 361 359 354 352 353 355 353 351 349 347 345 343 342 342 342 342 341 340 340 339 337 336 335 335 336 337
352 356 357 354 353 352 354 355 357 360 360 360 360 360 361 360 359 359 359 359 360 361 361 359 362 367 369 368 366 367 366 365 364 362 361 360 361 360 358 355 352 351 353 353 349 345 343 342 339 338 339 340 341 341 339 339 339 337 335 335 336 337 337
354 358 357 354 353 353 352 353 357 361 362 363 362 361 362 362 361 360 359 358 358 359 359 357 358 365 368 368 366 366 365 364 362 361 360 360 359 358 357 355 353 351 352 351 347 341 338 338 337 337 338 338 337 337 336 336 338 337 335 335 337 338 337
357 358 358 356 354 354 353 354 359 362 363 365 364 362 363 363 362 361 360 359 358 358 359 358 356 362 368 367 365 365 364 362 361 360 358 358 357 356 354 353 352 352 351 348 344 338 334 335 337 337 335 330 328 332 333 333 336 337 336 337 337 338 337
360 361 360 358 356 355 356 359 361 363 366 367 365 363 363 363 363 362 361 361 360 358 359 360 358 359 366 366 364 364 363 361 360 358 357 357 356 354 352 350 350 350 348 344 340 335 334 335 333 330 327 323 322 327 330 331 335 337 338 337 338 337 337
361 361 360 359 358 358 360 363 363 365 367 367 367 365 365 365 363 363 363 363 361 360 360 362 360 360 364 365 365 364 363 361 359 358 357 356 354 351 349 347 346 346 344 342 338 334 334 332 326 323 322 323 325 326 327 331 336 338 339 339 338 337 338
359 358 359 359 359 361 364 365 367 368 368 368 368 366 366 367 364 364 365 364 363 362 361 363 363 363 365 365 365 365 363 361 359 358 355 352 349 347 346 345 345 346 345 342 339 337 333 327 323 323 323 326 331 329 326 331 337 339 340 340 339 338 338
359 356 357 358 360 363 365 367 368 369 369 369 368 367 367 367 366 365 366 365 365 363 362 363 365 365 366 366 366 366 362 360 360 355 350 347 345 345 345 345 346 346 346 345 341 336 330 324 323 324 323 327 333 331 327 330 335 338 339 338 338 339 339
358 356 355 356 359 363 365 366 368 369 370 370 369 368 368 367 368 367 367 366 367 365 363 365 366 367 368 367 366 365 362 361 358 351 346 345 344 344 344 344 343 338 336 341 339 331 325 323 323 323 323 329 335 335 333 333 333 335 336 335 336 338 338
356 357 357 356 358 362 364 365 367 369 370 369 369 370 369 369 369 368 367 366 367 367 366 365 367 368 367 366 365 364 362 360 355 348 344 344 344 343 342 342 342 337 333 337 337 331 326 324 321 323 327 333 337 339 338 336 334 335 335 333 334 335 335
358 359 358 358 359 361 363 363 366 368 368 369 370 371 370 371 371 369 368 367 366 367 367 366 368 367 365 365 365 363 361 358 353 347 344 343 343 344 341 338 339 339 336 336 335 332 329 325 324 329 334 336 338 340 339 336 333 335 336 334 333 333 334
359 358 360 361 360 361 361 361 363 366 367 369 371 371 370 371 371 370 369 368 367 367 367 367 368 366 365 366 365 362 359 357 353 347 343 343 342 342 341 338 338 339 338 336 335 334 331 331 333 337 339 339 339 339 339 337 335 336 337 335 333 334 336
355 358 360 360 359 360 360 359 361 363 367 367 367 368 369 369 370 370 368 368 368 367 366 367 367 365 365 365 363 361 358 356 353 348 344 343 342 341 341 339 338 338 338 338 337 335 335 336 339 340 340 341 340 340 340 339 338 338 337 336 335 335 336
354 356 357 358 359 359 359 358 359 362 364 364 364 366 367 367 367 368 367 367 367 367 367 367 366 365 364 364 362 360 358 356 353 349 346 344 343 343 343 342 341 340 339 339 339 338 338 339 340 340 340 341 342 342 342 341 339 338 337 336 333 333 335
349 351 353 355 356 359 359 358 358 361 362 362 363 364 364 364 364 364 364 366 367 367 367 367 366 365 364 362 360 358 357 355 352 350 348 346 345 345 344 344 343 342 341 341 341 340 340 341 340 340 339 340 340 340 341 340 338 338 337 334 332 333 336
345 348 350 351 353 358 359 358 358 360 360 359 360 360 359 358 359 360 361 363 366 367 367 366 366 364 361 360 358 356 355 353 351 351 349 348 347 347 346 345 344 344 345 344 343 342 341 340 340 340 340 339 338 338 339 338 338 337 337 335 334 335 336
344 347 349 351 354 358 358 356 356 356 356 357 357 356 356 355 357 360 361 364 366 367 367 367 365 362 359 358 356 354 353 352 352 351 350 349 349 348 347 347 345 345 345 344 343 342 340 340 340 340 340 339 337 338 338 337 337 336 335 335 333 332 333
343 345 350 353 355 356 355 354 354 355 356 357 357 356 356 357 359 362 364 366 367 367 367 367 364 362 360 357 354 353 352 351 351 351 350 349 349 348 347 347 346 345 344 343 343 342 341 341 341 339 338 338 337 338 337 337 337 335 333 332 329 327 332
346 346 349 353 354 355 357 358 358 357 357 359 360 361 361 362 364 366 366 366 366 366 366 365 363 361 359 356 354 352 351 350 350 350 349 349 348 347 347 346 344 343 342 341 341 341 341 341 340 339 338 337 337 336 336 336 335 331 329 327 325 326 331
350 351 351 354 358 358 359 359 357 355 357 362 363 363 364 365 366 366 366 366 364 363 363 362 361 360 358 356 355 353 351 350 349 349 348 348 348 347 345 343 341 340 340 339 338 338 338 338 337 337 337 336 335 335 334 334 333 331 328 328 329 330 330
353 354 356 358 359 356 353 354 353 354 359 362 362 363 364 365 366 365 364 363 362 361 360 360 359 359 358 357 355 353 351 350 349 349 348 347 347 345 342 340 338 338 337 336 335 336 336 336 335 335 335 335 334 333 333 334 336 337 335 332 331 330 328
354 354 354 355 355 352 351 354 356 357 359 359 359 360 361 362 364 364 363 362 361 360 359 359 358 358 357 356 354 353 351 349 349 348 346 345 345 342 339 337 336 335 334 333 333 335 335 335 335 334 334 334 334 334 337 339 338 336 334 331 330 329 328
349 348 346 346 346 347 353 361 362 361 359 357 357 357 358 362 364 364 364 363 360 358 357 358 358 358 356 354 353 351 350 349 348 346 344 343 342 339 338 336 335 335 334 333 334 335 335 334 334 334 334 334 334 337 341 340 337 334 331 330 329 329 328
343 343 343 343 343 342 347 357 361 360 360 360 360 360 361 362 363 365 364 360 357 356 357 357 357 356 354 352 351 349 348 348 346 343 342 341 339 339 338 336 335 336 336 335 335 336 335 334 334 334 334 333 334 338 340 339 338 335 332 330 329 329 328
347 345 344 347 350 347 343 348 353 354 356 357 357 358 360 361 362 363 360 356 355 357 357 356 355 354 353 352 350 348 347 347 345 342 340 339 339 339 339 337 337 338 337 337 336 336 335 335 335 335 335 335 336 339 339 338 337 336 333 331 330 328 326
351 351 351 352 355 354 348 346 348 350 352 353 353 353 355 358 361 360 356 355 356 356 355 354 353 353 352 352 349 347 346 345 343 341 340 339 339 340 339 339 339 338 338 337 336 336 336 336 336 335 335 336 337 338 338 337 336 336 335 332 328 326 325
351 353 353 352 354 355 353 349 348 350 354 356 354 353 353 354 356 355 354 354 353 353 353 353 352 352 351 350 349 347 346 344 342 341 340 339 338 339 338 339 338 338 338 337 336 336 336 336 335 335 334 334 336 337 338 337 336 336 335 331 329 328 328
351 352 353 352 352 354 354 353 352 352 355 357 357 357 356 355 353 352 352 351 351 351 351 350 350 351 350 348 347 346 345 343 341 340 339 339 338 338 338 339 339 338 338 337 336 336 336 335 335 334 333 332 333 335 335 334 334 334 333 330 330 330 329
350 351 352 352 352 352 353 354 355 355 356 357 357 357 355 354 352 350 349 349 349 350 350 349 349 350 348 347 346 345 344 343 341 340 339 339 339 336 334 334 335 335 334 333 333 333 334 334 334 334 333 332 331 331 331 332 333 333 331 329 328 327 325
347 349 349 350 351 352 353 353 354 356 356 356 356 355 353 351 351 349 348 349 349 350 350 349 349 348 346 346 345 344 343 342 340 340 340 340 339 336 331 329 328 328 327 327 326 327 329 331 332 332 331 331 332 331 329 329 330 330 329 327 326 325 323
339 343 346 347 348 350 352 352 353 355 355 354 354 353 351 350 349 349 349 349 349 350 350 349 348 346 345 344 344 344 344 342 341 341 340 340 340 338 335 333 330 326 323 322 323 325 326 326 327 327 326 327 329 329 325 325 326 327 327 326 324 322 321
Wind_Speed
17 18 18 17 17 18 18 18 20 22 24 25 25 27 28 27 27 26 24 25 26 25 25 25 25 25 26 26 25 24 23 22 22 22 22 22 19 18 17 16 15 14 13 12 12 12 12 12 12 11 10 9 9 9 8 8 8 7 7 7 7 6 7
16 16 18 17 18 19 19 20 22 24 25 25 25 26 27 27 27 27 25 25 26 26 25 25 25 25 25 25 24 24 24 23 22 21 21 21 19 18 18 17 16 15 13 12 11 11 12 11 11 11 9 9 10 10 9 9 9 8 7 8 8 8 8
15 16 17 18 17 18 19 20 23 26 26 26 26 27 28 28 28 28 27 25 26 26 26 26 26 26 25 25 24 25 25 24 23 22 22 21 20 19 18 18 17 15 13 12 11 11 12 12 11 10 10 10 10 10 10 10 9 9 8 8 8 9 9
16 17 17 18 18 18 19 20 22 26 28 28 28 28 29 29 28 28 28 27 26 26 27 27 27 27 25 25 25 24 25 26 24 23 23 21 19 19 19 18 17 15 13 13 13 12 12 12 12 11 11 11 10 11 11 10 10 10 9 9 9 9 9
16 16 16 16 17 17 18 19 20 24 27 28 29 28 29 30 29 28 29 28 28 28 28 28 26 25 25 25 24 24 25 26 24 22 22 20 19 18 19 18 17 16 14 14 14 14 14 13 13 12 12 12 11 11 11 11 10 10 10 10 10 9 10
14 15 15 15 16 17 18 19 22 26 28 29 29 28 28 29 29 29 29 28 29 28 28 28 26 24 25 25 24 24 25 25 24 22 21 21 21 20 19 19 19 17 16 16 15 15 16 15 14 13 13 12 11 11 11 11 11 11 11 11 10 10 10
12 13 15 15 16 17 18 19 22 27 28 28 28 28 28 29 29 30 29 29 29 29 27 28 27 26 25 25 25 24 24 24 23 23 23 23 23 22 21 22 21 18 17 17 17 15 15 15 15 14 13 12 11 11 11 11 11 11 11 11 11 10 10
12 13 14 16 16 17 17 17 19 24 26 26 27 27 28 28 28 29 30 29 29 29 28 28 28 27 26 25 25 24 24 25 26 26 26 24 23 23 23 24 23 20 18 17 17 16 15 15 16 16 15 13 12 12 12 11 12 12 11 12 12 11 11
10 12 13 15 16 15 15 15 16 20 23 25 26 27 27 28 27 28 30 29 28 28 30 30 28 27 25 24 24 25 27 27 27 27 26 25 25 25 24 24 23 22 20 18 17 18 17 16 17 18 17 15 14 14 14 13 12 13 13 13 13 12 12
8 10 11 13 14 13 14 14 15 16 18 21 24 25 26 26 26 27 27 28 28 27 29 30 28 26 25 25 26 28 28 27 27 28 28 28 28 26 23 21 20 21 20 18 16 18 18 17 18 19 18 16 15 17 18 17 15 15 15 15 14 14 14
7 8 9 11 12 13 14 14 14 14 14 18 22 24 25 24 25 25 25 27 27 27 27 28 28 27 26 27 28 28 28 28 28 29 30 30 27 24 20 17 17 19 20 18 17 18 18 18 18 19 19 18 17 19 21 20 19 18 17 16 16 15 15
6 7 8 10 12 13 13 13 13 14 14 17 21 23 24 24 24 24 24 25 26 25 25 26 28 28 27 28 28 28 29 30 29 31 33 29 21 20 21 18 16 17 18 18 18 17 17 19 20 21 23 23 22 22 22 21 20 20 19 17 16 16 15
6 6 7 9 11 12 13 13 15 16 15 17 20 22 22 23 24 23 23 23 24 24 24 24 25 26 26 26 26 27 29 30 31 30 25 18 17 20 23 19 15 16 18 19 20 22 26 28 26 25 26 27 25 24 22 22 21 21 20 18 17 16 16
8 8 8 9 11 13 14 14 15 15 16 17 20 21 21 21 22 23 22 22 23 23 22 21 22 23 23 23 22 23 25 26 24 17 15 21 24 24 22 18 17 19 22 25 28 34 39 35 29 28 29 30 29 26 22 22 22 21 21 20 18 17 16
9 10 11 12 13 15 15 15 15 15 16 17 19 21 21 20 21 21 21 21 21 22 21 20 19 20 20 19 18 17 18 18 14 14 24 30 30 25 22 24 24 25 29 34 39 42 40 35 32 33 34 33 32 28 24 24 24 23 24 23 21 19 18
10 11 12 14 15 15 16 16 16 15 15 16 18 21 21 20 21 22 22 21 21 21 20 19 18 18 18 18 16 13 14 16 17 22 30 32 30 28 30 33 36 39 42 43 42 40 37 35 35 35 33 31 30 29 27 26 26 26 26 25 23 21 19
11 11 13 14 15 15 15 15 15 16 17 17 19 22 22 21 21 21 21 21 19 19 19 18 17 17 17 17 16 15 17 20 23 27 32 34 35 38 40 42 43 45 46 43 41 41 40 38 38 36 32 28 27 28 27 27 27 27 27 26 25 24 21
11 11 11 11 12 13 14 15 16 17 17 17 20 22 21 20 20 19 19 19 18 18 18 18 18 18 17 17 17 18 21 23 26 30 35 37 38 41 45 48 46 42 42 44 44 44 42 40 38 33 28 25 24 26 27 26 27 27 27 26 26 24 22
9 8 8 9 10 12 13 14 14 14 14 15 17 19 18 18 17 16 16 17 16 16 17 17 17 17 17 17 18 20 23 25 27 31 36 39 40 42 44 47 46 43 42 44 45 44 41 36 30 25 23 23 24 24 23 24 26 27 26 25 25 23 21
8 8 7 8 10 11 12 12 12 13 15 16 17 17 16 15 14 14 15 16 16 16 16 17 16 16 17 18 20 22 24 26 26 27 32 35 37 38 39 41 43 44 42 40 41 41 35 27 23 21 20 21 23 22 21 21 24 27 26 24 24 22 20
8 9 8 8 10 10 11 12 12 13 16 18 19 18 18 17 16 16 16 17 18 18 17 18 17 17 18 19 22 24 25 25 25 25 27 30 29 30 31 33 35 36 34 30 29 30 26 21 20 20 20 22 23 21 18 18 22 25 24 23 23 22 20
9 11 11 11 12 13 13 15 16 17 18 20 21 21 20 19 18 18 17 17 18 19 19 19 19 19 21 22 23 25 24 24 25 24 24 25 25 24 26 27 27 27 25 23 21 21 20 18 18 19 21 23 23 20 18 20 21 21 21 23 24 23 19
7 9 11 12 13 14 15 17 18 20 21 21 22 22 22 22 21 20 19 19 18 19 19 20 20 21 23 23 23 23 22 23 24 23 22 23 23 23 23 23 23 24 24 23 22 21 20 18 18 19 21 22 23 23 23 24 23 21 22 25 25 20 16
7 7 8 10 11 13 16 18 19 21 21 20 21 22 24 25 24 22 21 20 20 20 20 20 21 22 22 22 22 22 22 23 23 22 22 23 23 22 21 21 23 24 24 23 22 21 21 20 19 18 19 21 24 26 24 22 21 24 26 27 23 18 16
9 8 8 10 12 14 17 18 18 19 20 19 19 20 22 23 23 21 20 19 19 20 19 19 20 21 21 21 21 21 22 23 23 23 23 23 22 20 19 19 21 22 22 22 21 20 20 21 19 18 19 19 21 25 24 21 21 25 28 26 23 20 17
10 10 10 12 14 16 17 17 17 18 18 17 16 18 20 20 20 18 17 17 18 18 18 18 19 20 21 21 21 21 21 22 23 23 23 22 21 19 18 18 18 18 19 19 19 18 19 20 19 18 19 18 19 22 23 21 20 24 26 24 24 22 18
10 11 12 14 16 18 18 18 18 18 17 15 15 17 18 18 17 16 15 16 16 16 17 19 20 20 21 21 21 21 21 21 22 22 22 21 20 19 18 16 16 16 16 15 15 16 17 18 18 18 19 19 19 20 20 20 20 21 24 24 22 21 18
13 14 15 16 16 18 20 20 20 20 17 16 17 18 18 18 17 16 16 16 16 18 20 21 21 21 21 21 20 20 20 19 20 21 20 20 19 18 17 16 15 15 14 13 13 14 15 16 18 19 19 19 19 18 17 19 19 18 19 21 21 19 16
16 16 17 18 17 18 19 18 17 17 16 17 18 19 20 20 19 17 17 17 18 21 23 23 23 22 21 20 20 20 19 19 20 19 18 18 18 18 17 17 15 14 13 13 13 13 14 16 17 18 18 18 18 17 15 16 18 17 17 18 19 17 14
19 19 19 19 19 19 17 14 13 13 13 13 14 15 17 19 18 17 16 16 17 20 22 22 22 21 20 19 19 19 18 18 19 19 18 19 19 18 17 16 15 13 13 13 13 13 14 15 16 16 16 16 16 15 13 11 12 15 17 17 15 14 13
19 19 19 19 19 19 17 14 12 11 10 9 9 10 11 12 14 15 15 14 14 17 19 19 20 20 20 20 19 18 18 19 19 18 18 19 19 17 17 16 14 13 13 13 13 13 14 14 14 14 14 14 14 13 11 10 9 12 16 17 16 15 14
15 16 16 16 14 14 15 14 12 12 11 9 8 8 8 7 9 13 16 16 15 16 18 19 19 20 20 20 19 19 19 18 18 18 18 19 17 16 15 16 14 13 13 13 13 13 13 13 13 14 14 13 12 10 10 10 10 9 12 17 18 17 14
13 12 13 12 11 10 11 11 10 11 11 10 8 8 8 8 8 11 15 16 15 16 18 18 18 18 18 19 19 18 18 18 18 18 18 18 17 15 15 14 13 12 12 12 11 12 12 12 12 13 13 12 12 10 9 9 10 10 11 14 16 16 15
10 10 11 11 10 9 8 8 8 8 9 9 8 8 8 10 11 13 14 14 14 15 16 17 16 16 17 18 18 17 17 17 18 18 18 18 16 14 13 13 11 11 10 9 9 10 11 12 13 12 11 11 10 9 9 9 10 11 12 13 14 15 14
9 9 10 10 10 8 7 6 6 7 7 7 7 7 9 10 12 13 14 14 14 15 16 16 15 15 15 16 16 16 16 17 18 18 17 17 15 13 12 12 11 10 8 7 9 10 9 9 9 8 9 10 9 9 9 10 12 14 15 15 15 14 12
9 9 10 9 9 8 7 5 5 6 6 6 6 7 9 10 12 13 13 14 15 16 16 16 15 14 14 14 14 15 16 17 17 17 16 15 14 13 12 12 11 11 8 6 10 13 13 11 7 3 3 5 8 11 11 9 10 13 13 13 14 12 10
10 9 10 10 9 8 7 5 3 3 5 5 5 7 8 9 11 12 12 14 15 15 16 16 14 13 13 13 13 15 15 16 17 16 15 14 13 12 12 10 9 8 8 8 9 11 14 16 13 9 6 3 5 10 11 7 7 8 8 10 12 10 9
13 12 11 10 10 9 8 6 3 2 3 3 5 6 8 9 10 11 12 13 14 14 15 15 13 12 12 12 13 14 14 14 15 15 14 14 12 11 11 9 7 6 6 8 9 8 9 11 11 12 11 8 6 8 9 7 7 7 8 10 10 9 9
Wind_Direction
196 197 197 193 191 192 194 194 193 195 195 194 194 194 195 197 198 199 200 200 201 202 199 197 199 201 203 206 207 207 209 213 217 219 219 219 220 221 219 219 219 222 224 225 224 220 215 209 206 212 214 206 203 205 206 208 209 210 213 216 222 225 223
199 198 197 195 193 192 191 189 190 194 196 196 195 195 197 196 195 197 199 200 201 202 199 197 197 199 201 203 203 204 206 210 214 216 216 216 217 218 218 218 219 220 221 223 222 216 211 204 203 211 212 206 206 206 207 208 208 211 215 217 223 228 229
203 201 197 196 195 191 188 186 189 194 196 195 194 196 197 196 195 197 198 199 200 200 200 198 198 200 200 200 201 203 204 207 211 212 214 214 213 214 215 217 218 218 218 219 215 205 202 199 198 204 207 208 210 208 211 212 210 212 216 217 224 232 236
203 204 200 197 196 193 189 188 191 193 195 195 194 194 195 195 195 196 198 200 199 199 199 199 199 200 199 198 200 201 201 204 207 210 214 214 212 213 215 214 214 216 216 214 207 197 194 194 195 199 204 209 212 211 213 216 214 215 217 219 227 236 243
204 203 201 198 196 195 193 193 193 193 195 196 194 192 192 194 194 197 199 201 201 200 199 200 200 199 198 198 199 199 201 203 205 209 213 211 208 211 212 209 211 215 213 208 201 193 191 191 195 199 202 207 213 214 215 218 220 220 219 222 229 237 245
202 199 200 200 197 196 197 198 196 195 196 196 194 191 192 194 196 199 201 200 201 201 199 199 199 196 197 198 198 199 199 201 202 205 206 205 206 208 207 207 211 211 206 205 201 193 192 195 197 199 201 206 213 214 217 221 224 226 226 227 231 238 248
199 196 198 198 198 199 200 201 199 197 196 195 193 192 194 197 199 202 203 201 201 200 198 198 197 195 196 196 197 197 195 196 197 199 202 204 206 203 202 208 212 205 200 206 205 195 193 197 197 196 198 205 214 217 220 224 227 231 232 232 235 239 247
200 196 196 196 198 201 200 202 202 198 194 193 192 192 195 199 200 203 205 205 203 200 200 200 198 195 195 194 193 193 193 193 194 200 204 204 202 198 199 207 210 203 199 203 203 198 197 200 202 201 201 203 212 219 222 224 229 235 236 237 240 240 244
198 194 196 199 200 202 201 201 201 196 192 192 192 192 195 198 200 203 205 206 205 202 202 203 200 195 192 190 190 191 192 192 195 200 202 200 200 198 196 199 201 203 204 200 200 205 207 210 213 213 209 207 213 224 229 229 231 234 236 238 240 240 243
192 193 199 203 204 203 202 199 196 193 191 191 191 192 194 197 199 202 204 205 206 204 204 203 201 196 189 188 191 192 191 193 196 198 198 199 201 198 192 188 189 199 202 194 195 205 208 213 218 217 212 207 215 232 238 235 232 232 235 236 237 239 242
185 191 198 203 204 202 200 196 192 189 187 187 189 192 194 194 196 199 201 203 205 205 204 202 201 197 190 190 193 191 190 194 196 198 199 200 199 191 181 175 179 189 191 186 192 202 205 210 213 213 210 203 205 223 233 234 230 231 232 234 236 238 240
174 184 196 201 200 198 196 194 190 187 185 186 188 191 193 193 194 196 197 200 203 204 203 201 201 199 193 194 194 190 191 195 198 200 201 198 189 172 164 166 174 179 179 183 193 199 203 207 210 214 216 211 203 206 221 230 230 230 230 232 236 238 239
176 179 192 197 195 194 194 193 190 187 186 186 188 190 190 192 194 194 194 197 199 201 200 200 201 200 197 198 195 191 192 197 199 201 197 177 153 147 154 161 165 170 177 185 194 203 206 207 212 220 227 225 213 202 208 222 226 227 229 231 234 237 239
183 182 183 192 196 194 193 194 191 187 187 187 188 189 189 190 193 193 193 195 197 199 198 197 198 198 198 199 197 194 195 197 197 185 148 137 143 148 158 169 173 183 196 202 208 212 210 208 213 220 225 228 223 211 206 214 219 221 225 228 231 234 238
196 192 184 191 200 198 194 194 194 189 188 189 188 188 188 188 190 191 192 194 196 198 198 194 193 194 195 197 196 191 188 187 176 136 125 137 147 152 168 186 191 200 214 217 215 212 210 210 214 218 220 224 224 218 210 212 216 218 223 228 230 231 238
218 204 193 194 200 203 199 194 193 189 187 188 188 187 186 186 187 189 191 193 194 195 195 191 188 188 189 191 192 190 179 168 149 132 135 147 158 168 186 198 201 207 217 219 213 208 209 214 216 216 218 222 225 223 217 216 220 223 225 228 228 229 236
233 217 207 200 197 201 201 195 191 188 187 188 187 185 184 184 185 188 191 192 190 189 188 186 183 183 187 191 191 189 179 162 147 144 151 164 177 188 199 206 206 208 213 214 211 209 212 217 217 217 217 217 221 224 221 221 225 227 228 228 229 231 236
242 229 217 207 197 197 201 198 191 188 188 188 185 182 181 181 181 185 187 187 184 182 181 183 183 184 192 196 186 176 174 166 158 160 165 172 182 192 203 210 210 210 210 212 212 212 214 217 218 217 214 211 216 223 224 226 229 230 230 230 231 233 236
249 241 222 206 195 194 199 199 193 188 186 183 181 180 180 177 176 177 178 175 173 173 174 179 183 184 190 191 177 171 177 175 168 168 171 176 184 192 199 206 210 212 213 213 215 214 214 215 216 214 212 212 217 223 226 229 232 231 231 233 233 234 235
241 233 216 202 200 197 194 194 188 180 178 177 176 175 172 170 166 165 165 164 164 166 169 173 177 181 183 180 171 173 181 179 170 168 174 180 185 190 196 204 210 214 216 216 216 216 215 214 213 213 215 216 218 223 225 228 233 233 232 231 232 234 237
225 214 203 194 194 188 181 182 179 171 170 170 165 161 160 160 161 161 163 164 164 166 168 168 170 175 176 173 173 177 182 179 172 171 176 180 184 189 197 204 210 214 216 215 217 218 216 216 214 212 216 219 219 220 221 224 232 235 231 227 229 234 240
221 209 203 194 188 183 179 179 174 166 162 159 156 156 158 160 163 164 165 167 168 168 169 169 170 171 169 169 174 180 180 175 171 174 181 184 187 193 200 205 209 213 214 216 220 219 216 218 217 216 221 224 221 220 221 224 230 232 228 225 226 231 237
224 209 204 197 191 184 176 172 167 161 158 160 163 163 160 158 159 161 162 165 167 168 169 169 169 167 166 168 173 177 178 172 170 178 189 192 195 201 205 208 212 216 217 219 222 222 220 223 223 221 221 218 215 218 224 226 228 227 223 222 223 225 234
214 205 193 182 177 170 165 165 164 159 161 169 170 162 155 153 155 157 160 163 164 166 167 166 166 164 164 167 169 172 176 175 173 181 190 194 197 202 204 207 213 216 218 221 225 227 227 229 228 219 212 210 212 216 219 219 222 224 221 219 222 230 239
194 185 172 163 164 164 161 161 159 157 161 167 164 152 146 147 150 152 157 161 162 163 163 163 162 161 160 162 164 168 174 179 180 182 186 190 193 196 200 204 208 211 214 220 225 227 227 228 226 216 210 209 209 213 214 211 215 223 224 224 231 238 236
168 164 161 158 156 152 146 146 149 151 155 154 146 137 136 139 143 147 152 157 159 159 159 157 156 157 157 158 162 167 173 178 182 183 185 188 189 191 196 200 204 207 210 214 219 221 222 223 224 220 218 216 211 210 213 212 216 226 230 231 236 236 227
143 143 143 141 141 139 136 136 138 138 137 132 127 127 130 134 138 144 150 155 157 154 152 151 152 154 156 158 162 167 171 176 180 182 185 188 187 188 192 196 201 203 201 201 206 213 217 220 222 221 222 224 220 214 213 215 219 228 233 229 225 223 219
126 125 124 123 128 134 133 131 130 129 127 128 129 131 134 138 141 148 155 156 154 150 149 151 152 153 155 158 161 166 170 174 178 181 183 185 185 185 185 187 189 188 185 190 200 207 211 217 223 224 224 224 221 215 215 217 217 220 223 218 214 218 222
111 111 113 115 120 125 125 123 123 126 131 138 141 142 145 147 149 156 160 157 154 153 152 152 152 152 153 154 157 163 169 172 175 177 178 180 180 178 175 175 179 180 183 192 201 205 209 216 221 224 225 225 223 216 211 211 212 212 212 210 213 222 231
107 110 113 116 117 118 116 110 109 118 125 132 139 144 148 152 154 156 157 154 152 152 150 149 148 147 147 148 152 158 163 167 169 169 170 173 173 170 167 168 173 179 186 194 199 202 208 212 214 218 223 225 221 212 198 191 202 214 216 211 212 224 237
106 111 112 110 110 115 118 114 111 115 111 108 119 131 140 152 154 148 143 145 149 148 144 141 140 141 143 146 149 154 156 159 162 164 165 167 168 167 167 169 173 178 183 189 195 198 203 206 209 214 220 222 217 205 191 180 187 209 217 216 218 229 232
92 97 100 97 93 104 117 121 122 123 117 112 122 127 130 147 153 143 140 145 149 144 138 138 140 143 146 148 149 153 156 157 159 161 162 165 167 168 168 170 173 177 182 188 193 196 201 206 209 213 216 217 211 197 185 185 188 200 218 223 224 223 210
80 82 87 83 73 82 104 116 125 132 132 132 141 142 135 136 140 137 135 138 139 137 137 141 144 146 149 147 147 152 157 158 159 161 162 165 167 168 168 171 174 176 181 192 199 204 209 213 215 217 216 213 208 197 186 190 197 201 211 216 210 199 185
73 75 80 79 71 73 89 104 117 130 133 135 143 146 137 129 130 131 130 132 139 143 144 146 148 151 152 148 147 152 158 161 163 164 166 169 171 172 174 177 181 185 191 200 209 215 221 221 220 220 217 212 207 199 193 202 212 212 206 199 188 178 172
67 69 71 73 70 70 81 99 113 123 130 135 141 141 131 126 130 135 137 141 148 150 149 149 153 156 154 149 149 152 158 164 169 170 173 173 169 166 166 165 168 179 186 198 211 217 225 228 222 215 213 211 200 193 203 215 213 208 202 192 180 169 162
63 64 64 65 66 66 66 82 112 130 136 139 145 144 137 135 139 144 146 150 152 152 151 151 154 156 154 154 155 157 162 173 178 177 178 176 166 160 159 160 166 174 178 194 215 218 220 226 225 194 194 210 194 190 202 207 196 194 195 188 181 174 171
55 59 62 63 64 62 58 57 83 134 139 139 146 144 140 140 144 148 149 150 153 153 151 151 154 155 156 160 159 159 167 179 183 181 182 182 174 165 161 161 171 190 207 223 228 221 218 221 221 212 212 216 180 188 199 198 188 194 192 181 180 185 190
48 51 58 62 61 60 58 55 59 99 130 143 150 149 148 149 150 151 151 152 155 155 152 154 156 153 154 157 154 156 169 181 184 184 187 189 183 172 164 164 167 175 200 217 218 210 207 211 215 216 218 215 198 202 211 207 196 191 176 171 178 187 195